Other Public Products
Issued by NWS Grand Forks, ND

Home | Current Version | Previous Version | Text Only | Print | Product List | Glossary Off
Versions: 1 2 3 4 5 6 7 8 9 10 11 12 13 14 15 16 17 18 19 20 21 22 23 24 25 26 27 28 29 30 31 32 33 34 35 36 37 38 39 40 41 42 43 44 45 46 47 48 49 50

000
FPUS83 KFGF 031210
OPUFGF
PRAIRIE TO PINES WEATHER ROUNDUP
NATIONAL WEATHER SERVICE EASTERN NORTH DAKOTA/GRAND FORKS ND
700 AM CDT SUN MAY 03 2015

 **SATELLITE DATA USED TO AUGMENT SKY COVER AT AUTOMATED STATIONS**
 *****  WEATHER ACROSS EASTERN NORTH DAKOTA  *****

CITY           SKY/WX    TMP DP  RH WIND       PRES   REMARKS
GRAND FORKS    MOCLDY    49  41  74 NW9       29.77R
6HR MIN TEMP:  43; 6HR MAX TEMP:  53;

GRAND FORKS AF PTCLDY    49  39  69 NW8       29.79R
GRAND CITY NWS   N/A     46 N/A N/A NW10        N/A
BUXTON         NOT AVBL
DEVILS LAKE    CLOUDY    48  37  66 NW13      29.83R
6HR MIN TEMP:  46; 6HR MAX TEMP:  52;

FARGO          PTCLDY    49  41  74 N9        29.75R
6HR MIN TEMP:  48; 6HR MAX TEMP:  61;

WAHPETON ARPT  SUNNY     54  45  71 NE7       29.74R
$$

 *****  WEATHER ACROSS CENTRAL AND WESTERN NORTH DAKOTA  *****

CITY           SKY/WX    TMP DP  RH WIND       PRES   REMARKS
JAMESTOWN      CLOUDY    53  37  54 N21G26    29.81R
6HR MIN TEMP:  49; 6HR MAX TEMP:  55;

BISMARCK       LGT RAIN  53  39  59 NW10      29.91R
6HR MIN TEMP:  52; 6HR MAX TEMP:  59; 6HR PCP: TRACE;

MINOT          LGT RAIN  46  34  62 W16       29.89R
6HR MIN TEMP:  46; 6HR MAX TEMP:  54; 6HR PCP: TRACE;

MINOT AFB      MOCLDY    43  37  80 NW14      29.89R
6HR MIN TEMP:  43; 6HR MAX TEMP:  53;

GARRISON         N/A     48  38  68 NW6       29.91R
6HR MIN TEMP:  46; 6HR MAX TEMP:  52;

WILLISTON      PTCLDY    41  33  73 E6        29.96R
6HR MIN TEMP:  40; 6HR MAX TEMP:  52;

DICKINSON      CLOUDY    49  36  61 N8        29.93S
6HR MIN TEMP:  48; 6HR MAX TEMP:  56;

HETTINGER      CLOUDY    49  36  61 N12       29.93R
6HR MIN TEMP:  42; 6HR MAX TEMP:  55;

$$

 *****  OTHER OBSERVATIONS NORTHEAST NORTH DAKOTA  *****

CITY           SKY/WX    TMP DP  RH WIND       PRES   REMARKS
WALHALLA       FAIR      46  37  71 W8        29.79R
LANGDON        FAIR      45  37  76 NW15      29.81R
CAVALIER       FAIR      48  37  66 N6        29.78R
GRAFTON        FAIR      50  39  66 NW8       29.79R
CANDO          CLOUDY    46  37  71 NW12      29.84R
FORT TOTTEN      N/A     49  41  74 NW6       29.95S
ROLLA          NOT AVBL
RUGBY          NOT AVBL
 ***** THE ABOVE OBSERVATIONS ARE NON NWS ARE NOT QUALITY
        CONTROLLED AND MAY MIS-REPORT RAIN FOR SNOW...
$$

 *****  OTHER OBSERVATIONS SOUTHEAST NORTH DAKOTA *****

CITY           SKY/WX    TMP DP  RH WIND       PRES   REMARKS
COOPERSTOWN    NOT AVBL
VALLEY CITY    PTSUNNY   52  39  62 NW16      29.80R
OAKES            N/A     48  41  76 N12       29.78R
GWINNER        SUNNY     54  37  54 N14       29.77R
SHEYENNE NWR     N/A     52  41  67 N7        29.95S
BUFFALO        NOT AVBL
WYNDMERE       NOT AVBL
 ***** THE ABOVE OBSERVATIONS ARE NON NWS ARE NOT QUALITY
       CONTROLLED AND MAY MIS-REPORT RAIN FOR SNOW...
$$

  *****  WEATHER ACROSS NORTHERN MINNESOTA  *****

CITY           SKY/WX    TMP DP  RH WIND       PRES   REMARKS
FLAG ISLAND    MOCLDY    46  43  87 NW12      29.69R
WARROAD        MOCLDY    46  43  87 SW3       29.72R
ROSEAU         MOCLDY    48  41  76 CALM      29.73R
HALLOCK        PTCLDY    46  37  71 NW6       29.76R
THF RVR FALLS  MOCLDY    46  41  81 W9        29.75R
6HR MIN TEMP:  45; 6HR MAX TEMP:  57;

HALSTAD        NOT AVBL
FOSSTON        NOT AVBL
BAUDETTE       PTCLDY    46  42  86 NW7       29.70R
6HR MIN TEMP:  44; 6HR MAX TEMP:  65;

WASKISH        PTCLDY    54  48  82 SW8       29.72R
CROOKSTON      MOCLDY    45  41  87 NW5       29.77R
$$
  *****  WEATHER ACROSS CENTRAL AND WEST MINNESOTA  *****

CITY           SKY/WX    TMP DP  RH WIND       PRES   REMARKS
BEMIDJI        PTCLDY    51  47  83 NW7       29.73R
PARK RAPIDS    CLEAR     52  47  83 SE6       29.74R
6HR MIN TEMP:  51; 6HR MAX TEMP:  65;

WADENA         CLEAR     50  48  93 N6        29.72R
DETROIT LAKES  CLEAR     54  50  87 NW3       29.75R
MOORHEAD       PTCLDY    46  41  81 N3        29.77R
FERGUS FALLS   CLEAR     55  50  82 N7        29.74R
ELBOW LAKE     FAIR      54  53  94 S6        29.72R
6HR MIN TEMP:  54; 6HR MAX TEMP:  62;

MORRIS MN      PTCLDY    57  54  88 SE9       29.70R
STAPLES        FAIR      54  50  87 CALM      29.72R
WHEATON        CLEAR     52  48  87 CALM      29.73R
$$
  *****  WEATHER ELSEWHERE ACROSS MINNESOTA  *****

CITY           SKY/WX    TMP DP  RH WIND       PRES   REMARKS
DULUTH         CLOUDY    62  50  64 SW15      29.72R
6HR MIN TEMP:  51; 6HR MAX TEMP:  62; 6HR PCP: TRACE;

INTRNTL FALLS  CLEAR     49  41  74 W6        29.66S
6HR MIN TEMP:  40; 6HR MAX TEMP:  62; 6HR PCP: TRACE;

ELY            PTSUNNY   57  45  62 SW6       29.70R
CLOQUET        PTSUNNY   59  52  77 S8        29.72S
BRAINERD       CLEAR     53  51  93 CALM      29.72R
6HR MIN TEMP:  53; 6HR MAX TEMP:  62; 6HR PCP: TRACE;

HIBBING        PTSUNNY   45  39  79 CALM      29.72R
6HR MIN TEMP:  43; 6HR MAX TEMP:  64;

ALEXANDRIA     PTCLDY    59  54  83 S6        29.72R
6HR MIN TEMP:  58; 6HR MAX TEMP:  64; 6HR PCP:  0.09;

SAINT CLOUD    MOCLDY    57  53  86 S16       29.72F
6HR MIN TEMP:  57; 6HR MAX TEMP:  64; 6HR PCP:  0.02;

MINNEAPOLIS    CLOUDY    58  50  75 E3        29.77F
6HR MIN TEMP:  56; 6HR MAX TEMP:  66;

$$

  *****  WEATHER ACROSS SOUTH DAKOTA  *****

CITY           SKY/WX    TMP DP  RH WIND       PRES   REMARKS
SIOUX FALLS    MOCLDY    58  53  84 CALM      29.72R
6HR MIN TEMP:  52; 6HR MAX TEMP:  64;

BROOKINGS      CLEAR     57  54  88 S9        29.70F
WATERTOWN      CLEAR     51  49  92 SE5       29.70R FOG
6HR MIN TEMP:  50; 6HR MAX TEMP:  64;

HURON          PTCLDY    50  49  96 NW5       29.69R FOG
6HR MIN TEMP:  50; 6HR MAX TEMP:  68;

SISSETON         N/A     51  49  92 NW13      29.72R
ABERDEEN       CLEAR     52  40  63 N18       29.75R
6HR MIN TEMP:  47; 6HR MAX TEMP:  60;

MITCHELL       MOCLDY    63  54  72 S10       29.69R
PIERRE         PTCLDY    52  36  54 N22       29.74R
6HR MIN TEMP:  48; 6HR MAX TEMP:  61;

MOBRIDGE       CLEAR     54  39  57 N18G25    29.80R
RAPID CITY     MOCLDY    50  33  52 N25       29.87R
6HR MIN TEMP:  50; 6HR MAX TEMP:  56;

$$

  *****  SOME WEATHER IN NEARBY STATES *****

CITY           SKY/WX    TMP DP  RH WIND       PRES   REMARKS
GLASGOW MT     PTCLDY    35  29  78 NW5       29.98S
6HR MIN TEMP:  34; 6HR MAX TEMP:  46;

GREAT FALLS MT CLEAR     37  26  64 CALM      30.01R
6HR MIN TEMP:  30; 6HR MAX TEMP:  45;

CHEYENNE WY    PTCLDY    52  33  48 W15G21    29.92F
6HR MIN TEMP:  52; 6HR MAX TEMP:  57;

SCOTTSBLUFF NE CLEAR     51  41  68 VRB7      29.83R
6HR MIN TEMP:  48; 6HR MAX TEMP:  61;

OMAHA NE       MOCLDY    62  56  80 S15       29.74S
6HR MIN TEMP:  60; 6HR MAX TEMP:  62; 6HR PCP:  0.37;

DES MOINES IA  CLOUDY    60  56  86 N3        29.79R
6HR MIN TEMP:  60; 6HR MAX TEMP:  62; 6HR PCP:  0.02;

DAVENPORT IA   CLOUDY    63  53  70 S13       29.92R
6HR MIN TEMP:  60; 6HR MAX TEMP:  63; 6HR PCP:  0.01;

CHICAGO IL     PTSUNNY   57  45  64 S3        29.97S
6HR MIN TEMP:  55; 6HR MAX TEMP:  62; 6HR PCP: TRACE;

EAU CLAIRE WI  CLOUDY    57  48  72 CALM      29.81R
6HR MIN TEMP:  57; 6HR MAX TEMP:  64;

LA CROSSE WI   PTSUNNY   62  51  67 S8        29.81S
6HR MIN TEMP:  59; 6HR MAX TEMP:  64;

$$

  *****  SOME NATIONAL WEATHER *****

CITY           SKY/WX    TMP DP  RH WIND       PRES   REMARKS


USA.gov is the U.S. government's official web portal to all federal, state and local government web resources and services.